Location: Bussy-Saint-Georges
(48.8410°N, 2.7017°E)
Time: 14:26:51
(UTC+00:00)

CZ-2C R/B - Pass Details

Date: 18 October 2021
Orbit: 784 x 871 km, 98.2° (Epoch: 28 November)

Event Time Altitude Azimuth Distance (km) Brightness Sun altitude
Rises 18:50:19 0° 10° (N) 3,473 5.9 -19.9°
Reaches altitude 10° 18:52:46 10° 5° (N) 2,530 5.2 -20.3°
Maximum altitude 18:58:12 51° 292° (WNW) 1,080 3.6 -21.2°
Drops below altitude 10° 19:03:33 10° 217° (SW) 2,488 5.5 -22.1°
Sets 19:05:57 0° 213° (SSW) 3,410 6.1 -22.5°
